Miscellaneous Local Product
Issued by NWS North Platte, NE

Home | Current Version | Previous Version | Text Only | Print | Product List | Glossary On
Versions: 1 2 3 4 5 6 7 8 9 10 11 12 13 14 15 16 17 18 19 20 21 22 23 24 25 26 27 28 29 30 31 32 33 34 35 36 37 38 39 40 41 42 43 44 45 46 47 48 49 50
000
AXUS43 KLBF 181010
MISLBF


WESTERN AND NORTH CENTRAL NEBRASKA HOURLY WEATHER ROUNDUP
NATIONAL WEATHER SERVICE NORTH PLATTE NE
500 AM CDT FRI AUG 18 2017

NOTE: "FAIR" INDICATES FEW OR NO CLOUDS BELOW 12,000 FEET WITH NO
SIGNIFICANT WEATHER AND/OR OBSTRUCTIONS TO VISIBILITY.

NOTE: STATIONS NOT REPORTING VARIABLES SUCH AS SKY/WEATHER OR
PRESSURE ARE PROVIDED BY RAWS AND APRS NETWORKS AND ARE NOT UNDER
NATIONAL WEATHER SERVICE QUALITY CONTROL.

...OBSERVATIONS IN AND NEAR THE EASTERN PANHANDLE OF NEBRASKA...

CITY           SKY/WX    TMP DP  RH WIND       PRES   REMARKS
PINE RIDGE     CLEAR     53  50  89 W5        30.04S
GORDON         FAIR      52  48  86 W5        30.04F
CHADRON        CLEAR     51  47  86 SW5       30.05S
ALLIANCE       CLOUDY    50  48  93 MISG      30.08S
SIDNEY         CLOUDY    54  49  83 NW9       30.11S
CRESCENT LAKE    N/A     54  52  93 N6          N/A
$$

...OBSERVATIONS IN NORTHERN NEBRASKA AND FAR SOUTHERN SOUTH DAKOTA...

CITY           SKY/WX    TMP DP  RH WIND       PRES   REMARKS
WINNER         FAIR      61  57  87 SW7       29.92S
VALENTINE      CLEAR     59  52  77 SW6       29.96F
THEDFORD       CLEAR     56  55  95 CALM      30.00F
AINSWORTH      CLEAR     60  58  92 SW10      29.97S
O`NEILL        CLEAR     58  58 100 CALM      29.94R
ORD            CLEAR     58  55  90 NW6       29.93R
BROKEN BOW     CLEAR     61  57  87 W7        29.96F
VALENTINE NWR    N/A     58  55  91 SW8         N/A
HALSEY           N/A     56  56 100 W3          N/A
BUTTE            N/A     59  57  92 N3          N/A
CHAMBERS         N/A     58  56  93 CALM        N/A
EWING            N/A     59  58  95 NE3         N/A
$$

...OBSERVATIONS IN SOUTHWEST NEBRASKA AND FAR NORTHEAST COLORADO...

CITY           SKY/WX    TMP DP  RH WIND       PRES   REMARKS
HOLYOKE        FAIR      59  54  82 N9        30.05S
IMPERIAL       CLEAR     57  54  89 N3        30.02S
OGALLALA       CLEAR     58  56  92 NW3       30.03R
NORTH PLATTE   CLEAR     58  56  93 CALM      29.99F
MCCOOK         CLEAR     61  57  87 CALM      30.01R
LEXINGTON      CLEAR     63  57  80 CALM      29.99S
STAPLETON        N/A     57  54  91 CALM        N/A
GOTHENBURG       N/A     64  53  67 CALM        N/A
CALLAWAY         N/A     59  57  92 CALM        N/A
$$

...OBSERVATIONS IN CENTRAL LINCOLN COUNTY AREA...

CITY           SKY/WX    TMP DP  RH WIND       PRES   REMARKS
N.P. AIRPORT   CLEAR     58  56  93 CALM      29.99F
N.P. SOUTHEAST   N/A     59  56  88 CALM        N/A
N.P. HILLCREST   N/A     63  56  77 CALM        N/A
$$

...SOME OBSERVATIONS FROM AROUND THE REGION...

CITY           SKY/WX    TMP DP  RH WIND       PRES   REMARKS
DENVER         CLOUDY    59  47  64 NW9       30.18R
LIMON          CLEAR     53  48  83 W8        30.14F
ASPEN          CLOUDY    51  39  63 VRB3      30.37S
LARAMIE        CLOUDY    45  37  73 SE5       30.28R
CASPER         CLEAR     47  44  90 W3        30.18S
CHEYENNE       CLEAR     50  43  77 NW7       30.22S
SCOTTSBLUFF    CLEAR     54  49  83 NW8       30.10S
GRAND ISLAND   CLOUDY    64  60  87 SE9       29.90F
OMAHA          CLOUDY    70  62  76 SW3       29.93F
SIOUX FALLS    LGT RAIN  63  61  93 N6        29.89R
PIERRE         CLEAR     59  57  93 S6        29.89S
RAPID CITY     PTCLDY    61  46  57 NW7       29.99F
BISMARCK       CLOUDY    62  58  86 N8        29.89R
KANSAS CITY    PTCLDY    64  60  87 S6        29.93F
HILL CITY      CLOUDY    66  58  75 SW6       29.98R
WICHITA        CLOUDY    69  65  86 S12       29.94F
DODGE CITY     CLOUDY    68  59  73 S13       30.02F
OKLAHOMA CITY  PTCLDY    71  70  96 S5        30.00F
DALLAS         CLOUDY    77  72  84 S3        29.96F
AMARILLO       CLOUDY    70  65  84 N9        30.13R
$$




USA.gov is the U.S. government's official web portal to all federal, state and local government web resources and services.